Jasper, AL

9:36 PM CDT on August 20, 2019 (GMT -0500)
Walker County-Bevill

Weather History for KJFX - June, 2019

Change the Weather History Date:

Friday, June 14, 2019

  Actual Average Record
Temperature  
Mean Temperature 68 °F -  
Max Temperature 87 °F 87 °F 102 °F (2011)
Min Temperature 48 °F 61 °F 47 °F (1985)
Cooling Degree Days 2    
Growing Degree Days 18 (Base 50)    
Moisture  
Dew Point 54 °F    
Average Humidity 65    
Maximum Humidity 100    
Minimum Humidity 27    
Precipitation  
Precipitation 0.00 in - - ()
Sea Level Pressure  
Sea Level Pressure 30.13 in    
Wind  
Wind Speed - (North)    
Max Wind Speed -    
Max Gust Speed -    
Visibility 10 miles    
Events      
Averages and records for this station are not official NWS values.
T = Trace of Precipitation, MM = Missing Value Source: NWS Daily Summary

Daily Weather History Graph

Daily Weather History Graph

Search for Another Location

Airport or City:

Astronomy

Jun. 14, 2019 Rise Set
Actual Time 5:37 AM CDT 8:01 PM CDT
Civil Twilight 5:08 AM CDT 8:30 PM CDT
Nautical Twilight 4:32 AM CDT 9:06 PM CDT
Astronomical Twilight 3:53 AM CDT 9:45 PM CDT
Moon 5:29 PM CDT (6/14) 3:46 AM CDT (6/14)
Length of Visible Light 15h 21m
Length of Day
14h 23m
Waxing Gibbous, 92% of the Moon is Illuminated
Jun 14
Waxing Gibbous
Jun 17
Full
Jun 25
Last Quarter
Jul 2
New
Jul 9
First Quarter

Hourly Weather History & Observations

Time (CDT) Temp. Heat Index Dew Point Humidity Pressure Visibility Wind Dir Wind Speed Gust Speed Precip Events Conditions
12:15 AM 55.4 °F - 55.4 °F 100% 30.13 in 10.0 mi North - - N/A   Clear
12:35 AM 55.4 °F - 55.4 °F 100% 30.13 in 10.0 mi North - - N/A   Clear
12:55 AM 53.6 °F - 53.6 °F 100% 30.13 in 10.0 mi North - - N/A   Clear
1:15 AM 53.6 °F - 53.6 °F 100% 30.13 in 10.0 mi North - - N/A   Clear
1:35 AM 53.6 °F - 53.6 °F 100% 30.13 in 10.0 mi North - - N/A   Clear
1:55 AM 53.6 °F - 53.6 °F 100% 30.13 in 10.0 mi North - - N/A   Clear
2:15 AM 53.6 °F - 53.6 °F 100% 30.12 in 10.0 mi North - - N/A   Clear
2:35 AM 51.8 °F - 51.8 °F 100% 30.12 in 10.0 mi North - - N/A   Clear
2:55 AM 51.8 °F - 51.8 °F 100% 30.12 in 10.0 mi North - - N/A   Clear
3:15 AM 51.8 °F - 51.8 °F 100% 30.13 in 10.0 mi North - - N/A   Clear
3:35 AM 51.8 °F - 51.8 °F 100% 30.13 in 10.0 mi North - - N/A   Clear
3:55 AM 50.0 °F - 50.0 °F 100% 30.14 in 10.0 mi North - - N/A   Clear
4:15 AM 50.0 °F - 50.0 °F 100% 30.14 in 4.0 mi North - - N/A   Clear
4:35 AM 50.0 °F - 50.0 °F 100% 30.14 in 7.0 mi North - - N/A   Clear
4:55 AM 50.0 °F - 50.0 °F 100% 30.15 in 10.0 mi North - - N/A   Clear
5:15 AM 50.0 °F - 50.0 °F 100% 30.15 in 10.0 mi North - - N/A   Clear
5:35 AM 48.2 °F - 48.2 °F 100% 30.16 in 9.0 mi North - - N/A   Clear
5:55 AM 50.0 °F - 50.0 °F 100% 30.17 in 10.0 mi North - - N/A   Clear
6:15 AM 50.0 °F - 50.0 °F 100% 30.17 in 8.0 mi North - - N/A   Clear
6:35 AM 51.8 °F - 51.8 °F 100% 30.18 in 10.0 mi North - - N/A   Clear
6:55 AM 53.6 °F - 53.6 °F 100% 30.18 in 10.0 mi North - - N/A   Clear
7:15 AM 59.0 °F - 59.0 °F 100% 30.18 in 10.0 mi North - - N/A   Clear
7:35 AM 60.8 °F - 60.8 °F 100% 30.19 in 10.0 mi North - - N/A   Clear
7:55 AM 64.4 °F - 59.0 °F 83% 30.20 in 10.0 mi North - - N/A   Clear
8:15 AM 66.2 °F - 55.4 °F 68% 30.20 in 10.0 mi North - - N/A   Clear
8:35 AM 69.8 °F - 53.6 °F 56% 30.21 in 10.0 mi North - - N/A   Clear
8:55 AM 71.6 °F - 53.6 °F 53% 30.21 in 10.0 mi North - - N/A   Clear
9:15 AM 75.2 °F - 53.6 °F 47% 30.20 in 10.0 mi North - - N/A   Clear
9:35 AM 77.0 °F - 53.6 °F 44% 30.20 in 10.0 mi North - - N/A   Clear
9:55 AM 78.8 °F - 53.6 °F 42% 30.21 in 10.0 mi North - - N/A   Clear
10:15 AM 80.6 °F 80.3 °F 53.6 °F 39% 30.20 in 10.0 mi North - - N/A   Clear
10:35 AM 80.6 °F 80.3 °F 53.6 °F 39% 30.20 in 10.0 mi North - - N/A   Clear
10:55 AM 82.4 °F 81.4 °F 53.6 °F 37% 30.19 in 10.0 mi North - - N/A   Clear
11:15 AM 84.2 °F 82.8 °F 53.6 °F 35% 30.20 in 10.0 mi North - - N/A   Clear
11:35 AM 84.2 °F - 51.8 °F 33% 30.19 in 10.0 mi North - - N/A   Clear
11:55 AM 82.4 °F - 51.8 °F 35% 30.18 in 10.0 mi North - - N/A   Clear
12:15 PM 82.4 °F - 51.8 °F 35% 30.17 in 10.0 mi North - - N/A   Clear
12:35 PM 84.2 °F - 51.8 °F 33% 30.17 in 10.0 mi North - - N/A   Clear
12:55 PM 86.0 °F - 51.8 °F 31% 30.16 in 10.0 mi North - - N/A   Clear
1:15 PM 86.0 °F - 51.8 °F 31% 30.15 in 10.0 mi North - - N/A   Clear
1:35 PM 87.8 °F - 51.8 °F 29% 30.14 in 10.0 mi North - - N/A   Clear
1:55 PM 87.8 °F - 50.0 °F 27% 30.13 in 10.0 mi North - - N/A   Clear
2:15 PM 87.8 °F - 50.0 °F 27% 30.12 in 10.0 mi North - - N/A   Clear
2:35 PM 87.8 °F - 51.8 °F 29% 30.12 in 10.0 mi North - - N/A   Clear
2:55 PM 87.8 °F - 51.8 °F 29% 30.11 in 10.0 mi North - - N/A   Clear
3:15 PM 87.8 °F - 51.8 °F 29% 30.11 in 10.0 mi North - - N/A   Clear
3:35 PM 87.8 °F - 51.8 °F 29% 30.10 in 10.0 mi North - - N/A   Clear
3:55 PM 87.8 °F - 51.8 °F 29% 30.09 in 10.0 mi North - - N/A   Clear
4:15 PM 87.8 °F - 51.8 °F 29% 30.09 in 10.0 mi North - - N/A   Clear
4:35 PM 87.8 °F 85.7 °F 53.6 °F 31% 30.09 in 10.0 mi North - - N/A   Clear
4:55 PM 87.8 °F 85.7 °F 53.6 °F 31% 30.08 in 10.0 mi North - - N/A   Clear
5:15 PM 87.8 °F 85.7 °F 53.6 °F 31% 30.07 in 10.0 mi North - - N/A   Clear
5:35 PM 87.8 °F 85.7 °F 53.6 °F 31% 30.06 in 10.0 mi North - - N/A   Clear
6:15 PM 86.0 °F 84.2 °F 53.6 °F 33% 30.06 in 10.0 mi North - - N/A   Clear
6:35 PM 84.2 °F 83.5 °F 57.2 °F 40% 30.05 in 10.0 mi North - - N/A   Clear
6:55 PM 80.6 °F 80.8 °F 57.2 °F 45% 30.06 in 10.0 mi North - - N/A   Clear
7:15 PM 77.0 °F - 62.6 °F 61% 30.06 in 10.0 mi North - - N/A   Clear
7:35 PM 75.2 °F - 62.6 °F 65% 30.06 in 10.0 mi North - - N/A   Clear
7:55 PM 71.6 °F - 62.6 °F 73% 30.06 in 10.0 mi North - - N/A   Clear
8:15 PM 69.8 °F - 60.8 °F 73% 30.07 in 10.0 mi North - - N/A   Clear
8:35 PM 68.0 °F - 60.8 °F 78% 30.07 in 10.0 mi North - - N/A   Clear
8:55 PM 66.2 °F - 60.8 °F 83% 30.08 in 10.0 mi North - - N/A   Clear
9:15 PM 66.2 °F - 62.6 °F 88% 30.08 in 10.0 mi North - - N/A   Clear
9:35 PM 64.4 °F - 62.6 °F 94% 30.09 in 10.0 mi North - - N/A   Clear